Time,TemperatureF,DewpointF,PressureIn,WindDirection,WindDirectionDegrees,WindSpeedMPH,WindSpeedGustMPH,Humidity,HourlyPrecipIn,Conditions,Clouds,dailyrainin,SoftwareType,DateUTC
2013-04-19 00:00:00,41.3,35.0,29.33,SW,217,12.0,30.0,78,0.00,,FEW250,0.00,VWS V14.01,2013-04-19 05:00:00,
2013-04-19 00:01:00,41.2,34.9,29.33,North,360,18.0,28.0,78,0.00,,OVC022,0.00,VWS V14.01,2013-04-19 05:01:00,
2013-04-19 00:05:00,41.2,34.9,29.33,SSE,168,8.0,28.0,78,0.00,,FEW250,0.00,VWS V14.01,2013-04-19 05:05:00,
2013-04-19 00:06:00,41.1,34.8,29.33,SW,224,12.0,26.0,78,0.00,,OVC022,0.00,VWS V14.01,2013-04-19 05:06:00,
2013-04-19 00:10:00,41.0,34.7,29.33,SW,225,20.0,26.0,78,0.00,,FEW250,0.00,VWS V14.01,2013-04-19 05:10:00,
2013-04-19 00:12:00,41.0,35.0,29.33,South,187,14.0,22.0,79,0.00,,OVC022,0.00,VWS V14.01,2013-04-19 05:12:00,
2013-04-19 00:15:00,41.0,36.2,29.33,SSW,210,7.0,20.0,83,0.00,,FEW250,0.00,VWS V14.01,2013-04-19 05:15:00,
2013-04-19 00:17:00,41.0,35.0,29.33,SSW,195,7.0,21.0,79,0.00,,OVC022,0.00,VWS V14.01,2013-04-19 05:17:00,
2013-04-19 00:20:00,40.9,35.2,29.33,SW,225,8.0,21.0,80,0.00,,FEW250,0.00,VWS V14.01,2013-04-19 05:20:00,
2013-04-19 00:22:00,40.9,35.2,29.33,North,360,19.0,20.0,80,0.00,,OVC022,0.00,VWS V14.01,2013-04-19 05:22:00,
2013-04-19 00:25:00,40.8,35.4,29.33,South,180,12.0,20.0,81,0.00,,FEW250,0.00,VWS V14.01,2013-04-19 05:25:00,
2013-04-19 00:27:00,40.7,35.6,29.33,SSW,205,12.0,22.0,82,0.00,,OVC022,0.00,VWS V14.01,2013-04-19 05:27:00,
2013-04-19 00:30:00,40.7,35.6,29.33,North,360,9.0,22.0,82,0.00,,FEW250,0.00,VWS V14.01,2013-04-19 05:30:00,
2013-04-19 00:32:00,40.6,35.8,29.33,WSW,241,9.0,19.0,83,0.00,,OVC022,0.00,VWS V14.01,2013-04-19 05:32:00,
2013-04-19 00:35:00,40.6,35.8,29.34,SSW,200,11.0,26.0,83,0.00,,FEW250,0.00,VWS V14.01,2013-04-19 05:35:00,
2013-04-19 00:37:00,40.5,36.0,29.34,SSW,201,14.0,26.0,84,0.00,,OVC022,0.00,VWS V14.01,2013-04-19 05:37:00,
2013-04-19 00:40:00,40.5,36.0,29.34,SW,226,8.0,22.0,84,0.00,,FEW250,0.00,VWS V14.01,2013-04-19 05:40:00,
2013-04-19 00:42:00,40.4,36.0,29.34,SW,219,17.0,20.0,84,0.00,,OVC022,0.00,VWS V14.01,2013-04-19 05:42:00,
2013-04-19 00:45:00,40.4,36.0,29.34,South,180,13.0,22.0,84,0.00,,FEW250,0.00,VWS V14.01,2013-04-19 05:45:00,
2013-04-19 00:47:00,40.4,35.7,29.33,SW,230,5.0,22.0,83,0.00,,OVC022,0.00,VWS V14.01,2013-04-19 05:47:00,
2013-04-19 00:50:00,40.4,35.7,29.34,North,360,18.0,23.0,83,0.00,,FEW250,0.00,VWS V14.01,2013-04-19 05:50:00,
2013-04-19 00:52:00,40.4,35.3,29.34,WSW,247,10.0,23.0,82,0.00,,OVC022,0.00,VWS V14.01,2013-04-19 05:52:00,
2013-04-19 00:55:00,40.3,35.2,29.34,SW,221,8.0,19.0,82,0.00,,FEW250,0.00,VWS V14.01,2013-04-19 05:55:00,
2013-04-19 00:57:00,40.2,35.2,29.34,WSW,240,10.0,18.0,82,0.00,,OVC022,0.00,VWS V14.01,2013-04-19 05:57:00,
2013-04-19 01:00:00,40.2,35.2,29.33,WSW,244,16.0,18.0,82,0.00,,FEW250,0.00,VWS V14.01,2013-04-19 06:00:00,
2013-04-19 01:02:00,40.1,35.4,29.33,South,186,1.0,16.0,83,0.00,,OVC020,0.00,VWS V14.01,2013-04-19 06:02:00,
2013-04-19 01:05:00,40.1,35.4,29.33,SSW,196,7.0,16.0,83,0.00,,FEW250,0.00,VWS V14.01,2013-04-19 06:05:00,
2013-04-19 01:07:00,39.9,35.2,29.33,West,262,4.0,19.0,83,0.00,,OVC020,0.00,VWS V14.01,2013-04-19 06:07:00,
2013-04-19 01:10:00,39.8,35.1,29.33,SW,221,17.0,19.0,83,0.00,,FEW250,0.00,VWS V14.01,2013-04-19 06:10:00,
2013-04-19 01:12:00,39.6,34.6,29.33,SSW,209,13.0,25.0,82,0.00,,OVC020,0.00,VWS V14.01,2013-04-19 06:12:00,
2013-04-19 01:15:00,39.5,34.2,29.33,South,182,20.0,37.0,81,0.00,,FEW250,0.00,VWS V14.01,2013-04-19 06:15:00,
2013-04-19 01:17:00,39.3,33.3,29.34,North,360,20.0,37.0,79,0.00,,OVC020,0.00,VWS V14.01,2013-04-19 06:17:00,
2013-04-19 01:20:00,39.1,33.2,29.34,South,191,7.0,37.0,79,0.00,,FEW250,0.00,VWS V14.01,2013-04-19 06:20:00,
2013-04-19 01:22:00,38.9,33.3,29.34,North,360,13.0,31.0,80,0.00,,OVC020,0.00,VWS V14.01,2013-04-19 06:22:00,
2013-04-19 01:25:00,38.8,33.2,29.34,SSW,203,24.0,27.0,80,0.00,,FEW250,0.00,VWS V14.01,2013-04-19 06:25:00,
2013-04-19 01:27:00,38.7,33.1,29.34,SSW,202,13.0,26.0,80,0.00,,OVC020,0.00,VWS V14.01,2013-04-19 06:27:00,
2013-04-19 01:30:00,38.7,33.1,29.34,WSW,241,15.0,23.0,80,0.00,,FEW250,0.00,VWS V14.01,2013-04-19 06:30:00,
2013-04-19 01:33:00,38.6,33.3,29.34,South,173,19.0,23.0,81,0.00,,OVC020,0.00,VWS V14.01,2013-04-19 06:33:00,
2013-04-19 01:35:00,38.6,33.3,29.34,SW,214,18.0,26.0,81,0.00,,FEW250,0.00,VWS V14.01,2013-04-19 06:35:00,
2013-04-19 01:38:00,38.5,33.2,29.34,North,360,5.0,26.0,81,0.00,,OVC020,0.00,VWS V14.01,2013-04-19 06:38:00,
2013-04-19 01:40:00,38.5,33.2,29.34,South,189,7.0,24.0,81,0.00,,FEW250,0.00,VWS V14.01,2013-04-19 06:40:00,
2013-04-19 01:43:00,38.4,33.1,29.33,SW,236,16.0,22.0,81,0.00,,OVC020,0.00,VWS V14.01,2013-04-19 06:43:00,
2013-04-19 01:45:00,38.3,32.7,29.33,South,191,17.0,22.0,80,0.00,,SCT250,0.00,VWS V14.01,2013-04-19 06:45:00,
2013-04-19 01:48:00,38.3,33.0,29.34,SW,219,16.0,22.0,81,0.00,,OVC020,0.00,VWS V14.01,2013-04-19 06:48:00,
2013-04-19 01:50:00,38.3,33.0,29.34,WSW,252,9.0,22.0,81,0.00,,FEW250,0.00,VWS V14.01,2013-04-19 06:50:00,
2013-04-19 01:53:00,38.2,32.9,29.34,SSW,199,10.0,23.0,81,0.00,,OVC020,0.00,VWS V14.01,2013-04-19 06:53:00,
2013-04-19 01:55:00,38.2,32.9,29.34,South,182,10.0,23.0,81,0.00,,FEW250,0.00,VWS V14.01,2013-04-19 06:55:00,
2013-04-19 01:58:00,38.2,32.9,29.34,North,360,17.0,21.0,81,0.00,,OVC020,0.00,VWS V14.01,2013-04-19 06:58:00,
2013-04-19 02:00:00,38.2,32.9,29.34,WSW,256,11.0,21.0,81,0.00,,FEW250,0.00,VWS V14.01,2013-04-19 07:00:00,
2013-04-19 02:03:00,38.2,32.9,29.34,SW,214,8.0,17.0,81,0.00,,OVC018,0.00,VWS V14.01,2013-04-19 07:03:00,
2013-04-19 02:05:00,38.2,32.9,29.34,SW,215,15.0,17.0,81,0.00,,FEW250,0.00,VWS V14.01,2013-04-19 07:05:00,
2013-04-19 02:08:00,38.1,32.5,29.34,North,360,9.0,31.0,80,0.00,,OVC018,0.00,VWS V14.01,2013-04-19 07:08:00,
2013-04-19 02:10:00,38.2,32.6,29.34,SW,227,21.0,31.0,80,0.00,,FEW250,0.00,VWS V14.01,2013-04-19 07:10:00,
2013-04-19 02:13:00,38.0,32.1,29.34,WSW,254,20.0,30.0,79,0.00,,OVC018,0.00,VWS V14.01,2013-04-19 07:13:00,
2013-04-19 02:15:00,38.0,32.1,29.33,South,174,20.0,31.0,79,0.00,,FEW250,0.00,VWS V14.01,2013-04-19 07:15:00,
2013-04-19 02:18:00,38.0,31.8,29.33,SW,221,12.0,30.0,78,0.00,,OVC018,0.00,VWS V14.01,2013-04-19 07:18:00,
2013-04-19 02:20:00,38.0,31.8,29.33,SSW,201,13.0,30.0,78,0.00,,FEW250,0.00,VWS V14.01,2013-04-19 07:20:00,
2013-04-19 02:23:00,37.9,31.7,29.34,West,263,12.0,29.0,78,0.00,,OVC018,0.00,VWS V14.01,2013-04-19 07:23:00,
2013-04-19 02:25:00,37.9,31.7,29.34,South,180,20.0,29.0,78,0.00,,FEW250,0.00,VWS V14.01,2013-04-19 07:25:00,
2013-04-19 02:28:00,37.8,31.9,29.33,West,266,17.0,23.0,79,0.00,,OVC018,0.00,VWS V14.01,2013-04-19 07:28:00,
2013-04-19 02:30:00,37.8,31.9,29.33,SW,229,23.0,23.0,79,0.00,,FEW250,0.00,VWS V14.01,2013-04-19 07:30:00,
2013-04-19 02:33:00,37.7,32.1,29.33,North,360,8.0,21.0,80,0.00,,OVC018,0.00,VWS V14.01,2013-04-19 07:33:00,
2013-04-19 02:35:00,37.7,32.1,29.33,SSW,199,10.0,21.0,80,0.00,,FEW250,0.00,VWS V14.01,2013-04-19 07:35:00,
2013-04-19 02:39:00,37.6,31.4,29.32,SSW,202,17.0,30.0,78,0.00,,OVC018,0.00,VWS V14.01,2013-04-19 07:39:00,
2013-04-19 02:40:00,37.5,31.3,29.32,SW,217,14.0,30.0,78,0.00,,FEW250,0.00,VWS V14.01,2013-04-19 07:40:00,
2013-04-19 02:44:00,37.5,31.6,29.33,North,360,15.0,29.0,79,0.00,,OVC018,0.00,VWS V14.01,2013-04-19 07:44:00,
2013-04-19 02:45:00,37.5,31.6,29.33,North,360,15.0,29.0,79,0.00,,FEW250,0.00,VWS V14.01,2013-04-19 07:45:00,
2013-04-19 02:49:00,37.5,31.6,29.32,SW,233,11.0,20.0,79,0.00,,OVC018,0.00,VWS V14.01,2013-04-19 07:49:00,
2013-04-19 02:50:00,37.5,31.6,29.32,SW,233,11.0,20.0,79,0.00,,FEW250,0.00,VWS V14.01,2013-04-19 07:50:00,
2013-04-19 02:54:00,37.6,31.4,29.32,North,360,17.0,21.0,78,0.00,,OVC018,0.00,VWS V14.01,2013-04-19 07:54:00,
2013-04-19 02:55:00,37.6,31.4,29.32,North,360,17.0,21.0,78,0.00,,FEW250,0.00,VWS V14.01,2013-04-19 07:55:00,
2013-04-19 02:59:00,37.7,31.5,29.32,SSW,203,9.0,18.0,78,0.00,,OVC018,0.00,VWS V14.01,2013-04-19 07:59:00,
2013-04-19 03:00:00,37.7,31.5,29.32,SSW,203,9.0,18.0,78,0.00,,FEW250,0.00,VWS V14.01,2013-04-19 08:00:00,
2013-04-19 03:04:00,37.6,31.7,29.32,SSW,200,9.0,17.0,79,0.00,,OVC026,0.00,VWS V14.01,2013-04-19 08:04:00,
2013-04-19 03:05:00,37.6,31.7,29.32,SSW,200,9.0,17.0,79,0.00,,FEW250,0.00,VWS V14.01,2013-04-19 08:05:00,
2013-04-19 03:09:00,37.7,31.5,29.32,SW,219,9.0,23.0,78,0.00,,OVC026,0.00,VWS V14.01,2013-04-19 08:09:00,
2013-04-19 03:10:00,37.7,31.5,29.32,SW,219,9.0,23.0,78,0.00,,FEW250,0.00,VWS V14.01,2013-04-19 08:10:00,
2013-04-19 03:14:00,37.7,31.5,29.32,SW,227,12.0,18.0,78,0.00,,OVC026,0.00,VWS V14.01,2013-04-19 08:14:00,
2013-04-19 03:15:00,37.7,31.5,29.32,SW,227,12.0,18.0,78,0.00,,FEW250,0.00,VWS V14.01,2013-04-19 08:15:00,
2013-04-19 03:19:00,37.8,30.9,29.32,WSW,238,7.0,25.0,76,0.00,,OVC026,0.00,VWS V14.01,2013-04-19 08:19:00,
2013-04-19 03:20:00,37.8,30.9,29.32,WSW,238,7.0,25.0,76,0.00,,FEW250,0.00,VWS V14.01,2013-04-19 08:20:00,
2013-04-19 03:24:00,37.9,31.0,29.33,SSW,195,14.0,25.0,76,0.00,,OVC026,0.00,VWS V14.01,2013-04-19 08:24:00,
2013-04-19 03:25:00,37.9,31.0,29.33,SSW,195,14.0,25.0,76,0.00,,FEW250,0.00,VWS V14.01,2013-04-19 08:25:00,
2013-04-19 03:29:00,37.9,30.7,29.33,SW,222,14.0,36.0,75,0.00,,OVC026,0.00,VWS V14.01,2013-04-19 08:29:00,
2013-04-19 03:30:00,37.9,30.7,29.33,SW,222,14.0,36.0,75,0.00,,FEW250,0.00,VWS V14.01,2013-04-19 08:30:00,
2013-04-19 03:34:00,37.9,30.7,29.33,South,169,16.0,23.0,75,0.00,,OVC026,0.00,VWS V14.01,2013-04-19 08:34:00,
2013-04-19 03:35:00,37.9,30.7,29.33,South,169,16.0,23.0,75,0.00,,FEW250,0.00,VWS V14.01,2013-04-19 08:35:00,
2013-04-19 03:39:00,37.7,30.5,29.33,SSW,200,8.0,20.0,75,0.00,,OVC026,0.00,VWS V14.01,2013-04-19 08:39:00,
2013-04-19 03:40:00,37.7,30.5,29.33,SSW,200,8.0,20.0,75,0.00,,FEW250,0.00,VWS V14.01,2013-04-19 08:40:00,
2013-04-19 03:44:00,37.6,30.4,29.33,SW,234,10.0,23.0,75,0.00,,OVC026,0.00,VWS V14.01,2013-04-19 08:44:00,
2013-04-19 03:45:00,37.6,30.4,29.33,SW,234,10.0,23.0,75,0.00,,FEW250,0.00,VWS V14.01,2013-04-19 08:45:00,
2013-04-19 03:49:00,37.4,30.5,29.33,SSW,213,0.0,19.0,76,0.00,,OVC026,0.00,VWS V14.01,2013-04-19 08:49:00,
2013-04-19 03:50:00,37.4,30.5,29.33,SSW,213,0.0,19.0,76,0.00,,FEW250,0.00,VWS V14.01,2013-04-19 08:50:00,
2013-04-19 03:54:00,37.4,30.5,29.32,SSW,208,7.0,15.0,76,0.00,,OVC026,0.00,VWS V14.01,2013-04-19 08:54:00,
2013-04-19 03:55:00,37.4,30.5,29.32,SSW,208,7.0,15.0,76,0.00,,FEW250,0.00,VWS V14.01,2013-04-19 08:55:00,
2013-04-19 03:59:00,37.4,30.9,29.32,SW,215,13.0,19.0,77,0.00,,OVC026,0.00,VWS V14.01,2013-04-19 08:59:00,
2013-04-19 04:00:00,37.4,30.9,29.32,SW,215,13.0,19.0,77,0.00,,FEW250,0.00,VWS V14.01,2013-04-19 09:00:00,
2013-04-19 04:05:00,37.3,30.1,29.32,SW,229,14.0,25.0,75,0.00,,OVC033,0.00,VWS V14.01,2013-04-19 09:05:00,
2013-04-19 04:10:00,37.3,30.4,29.32,SW,217,10.0,18.0,76,0.00,,OVC033,0.00,VWS V14.01,2013-04-19 09:10:00,
2013-04-19 04:15:00,37.3,30.4,29.32,North,360,7.0,17.0,76,0.00,,OVC033,0.00,VWS V14.01,2013-04-19 09:15:00,
2013-04-19 04:20:00,37.3,30.1,29.32,SW,214,10.0,23.0,75,0.00,,OVC033,0.00,VWS V14.01,2013-04-19 09:20:00,
2013-04-19 04:25:00,37.3,30.1,29.32,SSE,160,12.0,24.0,75,0.00,,OVC033,0.00,VWS V14.01,2013-04-19 09:25:00,
2013-04-19 04:30:00,37.4,30.2,29.32,SW,224,13.0,25.0,75,0.00,,OVC033,0.00,VWS V14.01,2013-04-19 09:30:00,
2013-04-19 04:35:00,37.3,30.4,29.32,North,360,17.0,17.0,76,0.00,,BKN042,0.00,VWS V14.01,2013-04-19 09:35:00,
2013-04-19 04:40:00,37.3,30.1,29.32,SSW,204,17.0,27.0,75,0.00,,BKN042,0.00,VWS V14.01,2013-04-19 09:40:00,
2013-04-19 04:45:00,36.9,30.4,29.31,WSW,254,14.0,24.0,77,0.00,,BKN042,0.00,VWS V14.01,2013-04-19 09:45:00,
2013-04-19 04:50:00,36.8,30.6,29.31,SW,229,19.0,23.0,78,0.00,,BKN042,0.00,VWS V14.01,2013-04-19 09:50:00,
2013-04-19 04:55:00,36.9,30.4,29.31,SW,221,4.0,21.0,77,0.00,,BKN042,0.00,VWS V14.01,2013-04-19 09:55:00,
2013-04-19 05:00:00,36.9,30.0,29.30,SW,218,14.0,22.0,76,0.00,,OVC031,0.00,VWS V14.01,2013-04-19 10:00:00,
2013-04-19 05:05:00,36.9,30.0,29.30,West,277,9.0,20.0,76,0.00,,FEW250,0.00,VWS V14.01,2013-04-19 10:05:00,
2013-04-19 05:06:00,36.9,30.0,29.30,SW,221,13.0,20.0,76,0.00,,OVC031,0.00,VWS V14.01,2013-04-19 10:06:00,
2013-04-19 05:10:00,36.8,30.0,29.30,WSW,250,10.0,19.0,76,0.00,,FEW250,0.00,VWS V14.01,2013-04-19 10:10:00,
2013-04-19 05:11:00,36.8,30.0,29.30,SSW,208,11.0,23.0,76,0.00,,OVC031,0.00,VWS V14.01,2013-04-19 10:11:00,
2013-04-19 05:15:00,36.7,29.9,29.31,WSW,246,9.0,23.0,76,0.00,,FEW250,0.00,VWS V14.01,2013-04-19 10:15:00,
2013-04-19 05:16:00,36.7,29.9,29.31,WSW,247,12.0,22.0,76,0.00,,OVC031,0.00,VWS V14.01,2013-04-19 10:16:00,
2013-04-19 05:20:00,36.7,29.9,29.31,SW,234,14.0,22.0,76,0.00,,FEW250,0.00,VWS V14.01,2013-04-19 10:20:00,
2013-04-19 05:21:00,36.8,30.0,29.31,SW,223,10.0,20.0,76,0.00,,OVC031,0.00,VWS V14.01,2013-04-19 10:21:00,
2013-04-19 05:25:00,36.8,30.0,29.31,South,182,10.0,20.0,76,0.00,,FEW250,0.00,VWS V14.01,2013-04-19 10:25:00,
2013-04-19 05:26:00,36.8,30.0,29.31,SSE,150,11.0,20.0,76,0.00,,OVC031,0.00,VWS V14.01,2013-04-19 10:26:00,
2013-04-19 05:30:00,36.8,30.0,29.31,WSW,250,13.0,21.0,76,0.00,,FEW250,0.00,VWS V14.01,2013-04-19 10:30:00,
2013-04-19 05:31:00,36.8,30.0,29.31,SW,225,16.0,22.0,76,0.00,,OVC031,0.00,VWS V14.01,2013-04-19 10:31:00,
2013-04-19 05:35:00,36.8,30.0,29.31,SW,232,18.0,26.0,76,0.00,,FEW250,0.00,VWS V14.01,2013-04-19 10:35:00,
2013-04-19 05:36:00,36.8,29.6,29.31,SSW,213,19.0,31.0,75,0.00,,OVC031,0.00,VWS V14.01,2013-04-19 10:36:00,
2013-04-19 05:40:00,36.8,29.6,29.31,SW,218,16.0,34.0,75,0.00,,FEW250,0.00,VWS V14.01,2013-04-19 10:40:00,
2013-04-19 05:41:00,36.8,30.0,29.31,SSW,194,9.0,30.0,76,0.00,,OVC031,0.00,VWS V14.01,2013-04-19 10:41:00,
2013-04-19 05:45:00,36.8,30.0,29.31,WSW,242,7.0,22.0,76,0.00,,FEW250,0.00,VWS V14.01,2013-04-19 10:45:00,
2013-04-19 05:46:00,36.8,30.0,29.31,SW,221,8.0,21.0,76,0.00,,OVC031,0.00,VWS V14.01,2013-04-19 10:46:00,
2013-04-19 05:50:00,36.7,29.9,29.31,North,360,13.0,21.0,76,0.00,,FEW250,0.00,VWS V14.01,2013-04-19 10:50:00,
2013-04-19 05:51:00,36.7,29.9,29.31,SSW,205,13.0,26.0,76,0.00,,OVC031,0.00,VWS V14.01,2013-04-19 10:51:00,
2013-04-19 05:55:00,36.7,29.9,29.31,SSW,207,7.0,21.0,76,0.00,,FEW250,0.00,VWS V14.01,2013-04-19 10:55:00,
2013-04-19 05:56:00,36.8,30.0,29.31,SW,216,14.0,29.0,76,0.00,,OVC031,0.00,VWS V14.01,2013-04-19 10:56:00,
2013-04-19 06:00:00,36.7,29.9,29.31,SSW,208,17.0,29.0,76,0.00,,FEW250,0.00,VWS V14.01,2013-04-19 11:00:00,
2013-04-19 06:01:00,36.7,29.9,29.31,North,360,13.0,18.0,76,0.00,,OVC041,0.00,VWS V14.01,2013-04-19 11:01:00,
2013-04-19 06:05:00,36.7,29.9,29.31,SW,228,20.0,23.0,76,0.00,,FEW250,0.00,VWS V14.01,2013-04-19 11:05:00,
2013-04-19 06:06:00,36.8,30.0,29.31,SSW,206,13.0,23.0,76,0.00,,OVC041,0.00,VWS V14.01,2013-04-19 11:06:00,
2013-04-19 06:10:00,36.8,29.6,29.31,South,182,13.0,21.0,75,0.00,,FEW250,0.00,VWS V14.01,2013-04-19 11:10:00,
2013-04-19 06:11:00,36.8,29.6,29.32,North,360,13.0,29.0,75,0.00,,OVC041,0.00,VWS V14.01,2013-04-19 11:11:00,
2013-04-19 06:15:00,36.8,29.6,29.31,SSW,194,20.0,29.0,75,0.00,,FEW250,0.00,VWS V14.01,2013-04-19 11:15:00,
2013-04-19 06:17:00,36.8,29.6,29.32,North,360,10.0,21.0,75,0.00,,OVC041,0.00,VWS V14.01,2013-04-19 11:17:00,
2013-04-19 06:20:00,36.8,30.0,29.32,SW,236,23.0,27.0,76,0.00,,FEW250,0.00,VWS V14.01,2013-04-19 11:20:00,
2013-04-19 06:22:00,36.8,30.0,29.32,SSW,211,10.0,27.0,76,0.00,,OVC041,0.00,VWS V14.01,2013-04-19 11:22:00,
2013-04-19 06:25:00,36.8,30.0,29.32,SW,236,9.0,25.0,76,0.00,,FEW250,0.00,VWS V14.01,2013-04-19 11:25:00,
2013-04-19 06:27:00,36.8,30.0,29.32,WSW,253,10.0,22.0,76,0.00,,OVC041,0.00,VWS V14.01,2013-04-19 11:27:00,
2013-04-19 06:30:00,36.8,30.0,29.32,North,360,11.0,22.0,76,0.00,,FEW250,0.00,VWS V14.01,2013-04-19 11:30:00,
2013-04-19 06:32:00,36.7,29.9,29.32,West,265,21.0,21.0,76,0.00,,OVC041,0.00,VWS V14.01,2013-04-19 11:32:00,
2013-04-19 06:35:00,36.7,29.9,29.32,SW,232,19.0,26.0,76,0.00,,FEW250,0.00,VWS V14.01,2013-04-19 11:35:00,
2013-04-19 06:37:00,36.7,29.9,29.32,SW,232,12.0,26.0,76,0.00,,OVC041,0.00,VWS V14.01,2013-04-19 11:37:00,
2013-04-19 06:40:00,36.8,30.0,29.32,WNW,292,15.0,24.0,76,0.00,,FEW250,0.00,VWS V14.01,2013-04-19 11:40:00,
2013-04-19 06:42:00,36.7,29.5,29.32,WSW,241,22.0,26.0,75,0.00,,OVC041,0.00,VWS V14.01,2013-04-19 11:42:00,
2013-04-19 06:45:00,36.8,30.0,29.32,WSW,248,15.0,26.0,76,0.00,,FEW250,0.00,VWS V14.01,2013-04-19 11:45:00,
2013-04-19 06:47:00,36.8,30.0,29.31,West,279,11.0,19.0,76,0.00,,OVC041,0.00,VWS V14.01,2013-04-19 11:47:00,
2013-04-19 06:50:00,36.8,29.6,29.32,SSW,207,11.0,21.0,75,0.00,,FEW250,0.00,VWS V14.01,2013-04-19 11:50:00,
2013-04-19 06:52:00,36.8,29.6,29.32,SW,217,8.0,21.0,75,0.00,,OVC041,0.00,VWS V14.01,2013-04-19 11:52:00,
2013-04-19 06:55:00,36.9,29.7,29.32,SSW,201,5.0,21.0,75,0.00,,FEW250,0.00,VWS V14.01,2013-04-19 11:55:00,
2013-04-19 06:57:00,36.8,29.6,29.32,SE,143,14.0,22.0,75,0.00,,OVC041,0.00,VWS V14.01,2013-04-19 11:57:00,
2013-04-19 07:00:00,36.8,29.6,29.32,WSW,241,11.0,22.0,75,0.00,,FEW250,0.00,VWS V14.01,2013-04-19 12:00:00,
2013-04-19 07:02:00,36.9,29.7,29.32,SSW,209,13.0,21.0,75,0.00,,OVC045,0.00,VWS V14.01,2013-04-19 12:02:00,
2013-04-19 07:05:00,36.9,29.7,29.32,North,360,9.0,24.0,75,0.00,,FEW250,0.00,VWS V14.01,2013-04-19 12:05:00,
2013-04-19 07:07:00,36.8,29.6,29.32,WSW,242,12.0,23.0,75,0.00,,OVC045,0.00,VWS V14.01,2013-04-19 12:07:00,
2013-04-19 07:10:00,36.9,29.7,29.32,SW,221,11.0,21.0,75,0.00,,FEW250,0.00,VWS V14.01,2013-04-19 12:10:00,
2013-04-19 07:12:00,36.9,29.7,29.31,SSE,167,13.0,24.0,75,0.00,,OVC045,0.00,VWS V14.01,2013-04-19 12:12:00,
2013-04-19 07:15:00,36.9,29.7,29.32,SW,219,9.0,24.0,75,0.00,,FEW250,0.00,VWS V14.01,2013-04-19 12:15:00,
2013-04-19 07:17:00,36.9,29.4,29.31,SSW,202,16.0,26.0,74,0.00,,OVC045,0.00,VWS V14.01,2013-04-19 12:17:00,
2013-04-19 07:20:00,36.9,29.4,29.31,WNW,285,12.0,26.0,74,0.00,,FEW250,0.00,VWS V14.01,2013-04-19 12:20:00,
2013-04-19 07:22:00,36.9,29.1,29.32,WSW,252,15.0,33.0,73,0.00,,OVC045,0.00,VWS V14.01,2013-04-19 12:22:00,
2013-04-19 07:25:00,36.9,29.4,29.31,SW,231,13.0,33.0,74,0.00,,FEW250,0.00,VWS V14.01,2013-04-19 12:25:00,
2013-04-19 07:27:00,36.9,29.4,29.31,SW,226,22.0,29.0,74,0.00,,OVC045,0.00,VWS V14.01,2013-04-19 12:27:00,
2013-04-19 07:30:00,37.0,29.2,29.32,WNW,296,9.0,29.0,73,0.00,,FEW250,0.00,VWS V14.01,2013-04-19 12:30:00,
2013-04-19 07:33:00,37.0,29.5,29.31,SW,230,13.0,22.0,74,0.00,,OVC045,0.00,VWS V14.01,2013-04-19 12:33:00,
2013-04-19 07:35:00,37.0,29.5,29.31,SSW,209,7.0,18.0,74,0.00,,FEW250,0.00,VWS V14.01,2013-04-19 12:35:00,
2013-04-19 07:38:00,37.1,29.6,29.31,SSW,200,3.0,21.0,74,0.00,,OVC045,0.00,VWS V14.01,2013-04-19 12:38:00,
2013-04-19 07:40:00,37.1,29.6,29.31,North,360,13.0,25.0,74,0.00,,FEW250,0.00,VWS V14.01,2013-04-19 12:40:00,
2013-04-19 07:43:00,37.1,29.3,29.31,SSW,213,12.0,25.0,73,0.00,,OVC045,0.00,VWS V14.01,2013-04-19 12:43:00,
2013-04-19 07:45:00,37.1,29.3,29.31,SW,232,13.0,26.0,73,0.00,,FEW250,0.00,VWS V14.01,2013-04-19 12:45:00,
2013-04-19 07:48:00,37.1,29.3,29.31,WSW,250,11.0,26.0,73,0.00,,OVC045,0.00,VWS V14.01,2013-04-19 12:48:00,
2013-04-19 07:50:00,37.1,29.3,29.31,South,171,23.0,26.0,73,0.00,,FEW250,0.00,VWS V14.01,2013-04-19 12:50:00,
2013-04-19 07:53:00,37.1,29.3,29.31,WSW,252,18.0,29.0,73,0.00,,OVC045,0.00,VWS V14.01,2013-04-19 12:53:00,
2013-04-19 07:55:00,37.0,29.2,29.31,SW,218,9.0,29.0,73,0.00,,FEW250,0.00,VWS V14.01,2013-04-19 12:55:00,
2013-04-19 07:58:00,37.0,29.2,29.31,WSW,244,24.0,24.0,73,0.00,,OVC045,0.00,VWS V14.01,2013-04-19 12:58:00,
2013-04-19 08:00:00,37.0,29.2,29.31,South,182,22.0,24.0,73,0.00,,FEW250,0.00,VWS V14.01,2013-04-19 13:00:00,
2013-04-19 08:03:00,37.0,29.2,29.31,SW,226,18.0,28.0,73,0.00,,BKN040,0.00,VWS V14.01,2013-04-19 13:03:00,
2013-04-19 08:05:00,37.0,29.2,29.31,SW,227,18.0,31.0,73,0.00,,FEW250,0.00,VWS V14.01,2013-04-19 13:05:00,
2013-04-19 08:08:00,36.9,29.1,29.32,SW,232,20.0,26.0,73,0.00,,BKN040,0.00,VWS V14.01,2013-04-19 13:08:00,
2013-04-19 08:10:00,36.9,29.1,29.32,WSW,240,20.0,26.0,73,0.00,,FEW250,0.00,VWS V14.01,2013-04-19 13:10:00,
2013-04-19 08:13:00,36.8,29.3,29.32,WSW,240,26.0,29.0,74,0.00,,BKN040,0.00,VWS V14.01,2013-04-19 13:13:00,
2013-04-19 08:15:00,36.8,29.3,29.32,WSW,240,23.0,29.0,74,0.00,,FEW250,0.00,VWS V14.01,2013-04-19 13:15:00,
2013-04-19 08:18:00,36.8,29.3,29.31,South,191,12.0,24.0,74,0.00,,BKN040,0.00,VWS V14.01,2013-04-19 13:18:00,
2013-04-19 08:20:00,36.8,29.3,29.31,SSW,198,10.0,24.0,74,0.00,,FEW250,0.00,VWS V14.01,2013-04-19 13:20:00,
2013-04-19 08:23:00,36.9,29.1,29.31,North,360,8.0,24.0,73,0.00,,BKN040,0.00,VWS V14.01,2013-04-19 13:23:00,
2013-04-19 08:25:00,36.9,29.1,29.31,SSW,203,20.0,24.0,73,0.00,,FEW250,0.00,VWS V14.01,2013-04-19 13:25:00,
2013-04-19 08:28:00,36.9,29.1,29.32,West,264,18.0,26.0,73,0.00,,BKN040,0.00,VWS V14.01,2013-04-19 13:28:00,
2013-04-19 08:30:00,36.9,29.1,29.32,SW,215,13.0,26.0,73,0.00,,FEW250,0.00,VWS V14.01,2013-04-19 13:30:00,
2013-04-19 08:33:00,36.9,29.4,29.32,SW,235,13.0,22.0,74,0.00,,BKN040,0.00,VWS V14.01,2013-04-19 13:33:00,
2013-04-19 08:35:00,36.9,29.4,29.32,SW,229,12.0,22.0,74,0.00,,FEW250,0.00,VWS V14.01,2013-04-19 13:35:00,
2013-04-19 08:38:00,36.8,29.3,29.32,SW,221,22.0,23.0,74,0.00,,BKN040,0.00,VWS V14.01,2013-04-19 13:38:00,
2013-04-19 08:40:00,36.8,29.3,29.32,SSE,157,23.0,23.0,74,0.00,,FEW250,0.00,VWS V14.01,2013-04-19 13:40:00,
2013-04-19 08:43:00,36.7,29.2,29.32,SW,229,11.0,23.0,74,0.00,,BKN040,0.00,VWS V14.01,2013-04-19 13:43:00,
2013-04-19 08:45:00,36.7,29.2,29.32,West,271,12.0,23.0,74,0.00,,FEW250,0.00,VWS V14.01,2013-04-19 13:45:00,
2013-04-19 08:49:00,36.8,29.3,29.32,SSW,209,9.0,21.0,74,0.00,,BKN040,0.00,VWS V14.01,2013-04-19 13:49:00,
2013-04-19 08:50:00,36.8,29.3,29.32,SSW,206,6.0,21.0,74,0.00,,FEW250,0.00,VWS V14.01,2013-04-19 13:50:00,
2013-04-19 08:54:00,37.0,29.5,29.32,WSW,257,9.0,25.0,74,0.00,,BKN040,0.00,VWS V14.01,2013-04-19 13:54:00,
2013-04-19 08:55:00,37.0,29.5,29.32,SSW,204,7.0,25.0,74,0.00,,FEW250,0.00,VWS V14.01,2013-04-19 13:55:00,
2013-04-19 08:59:00,37.1,28.9,29.32,SW,234,16.0,29.0,72,0.00,,BKN040,0.00,VWS V14.01,2013-04-19 13:59:00,
2013-04-19 09:00:00,37.1,28.9,29.32,West,263,16.0,29.0,72,0.00,,FEW250,0.00,VWS V14.01,2013-04-19 14:00:00,
2013-04-19 09:04:00,37.3,29.1,29.32,SW,236,22.0,24.0,72,0.00,,BKN050,0.00,VWS V14.01,2013-04-19 14:04:00,
2013-04-19 09:05:00,37.3,29.1,29.32,SW,236,22.0,24.0,72,0.00,,FEW250,0.00,VWS V14.01,2013-04-19 14:05:00,
2013-04-19 09:09:00,37.4,28.5,29.32,SW,221,15.0,31.0,70,0.00,,BKN050,0.00,VWS V14.01,2013-04-19 14:09:00,
2013-04-19 09:10:00,37.4,28.5,29.32,SW,221,15.0,31.0,70,0.00,,FEW250,0.00,VWS V14.01,2013-04-19 14:10:00,
2013-04-19 09:14:00,37.7,28.8,29.32,SSW,208,11.0,31.0,70,0.00,,BKN050,0.00,VWS V14.01,2013-04-19 14:14:00,
2013-04-19 09:15:00,37.7,28.8,29.32,SSW,208,11.0,31.0,70,0.00,,FEW250,0.00,VWS V14.01,2013-04-19 14:15:00,
2013-04-19 09:19:00,38.3,29.4,29.32,SSW,196,13.0,28.0,70,0.00,,BKN050,0.00,VWS V14.01,2013-04-19 14:19:00,
2013-04-19 09:20:00,38.3,29.4,29.32,SSW,196,13.0,28.0,70,0.00,,FEW250,0.00,VWS V14.01,2013-04-19 14:20:00,
2013-04-19 09:24:00,38.4,29.1,29.32,SSW,209,20.0,29.0,69,0.00,,BKN050,0.00,VWS V14.01,2013-04-19 14:24:00,
2013-04-19 09:25:00,38.4,29.1,29.32,SSW,209,20.0,29.0,69,0.00,,FEW250,0.00,VWS V14.01,2013-04-19 14:25:00,
2013-04-19 09:29:00,38.4,29.5,29.33,SSW,211,15.0,28.0,70,0.00,,BKN050,0.00,VWS V14.01,2013-04-19 14:29:00,
2013-04-19 09:30:00,38.4,29.5,29.33,SSW,211,15.0,28.0,70,0.00,,FEW250,0.00,VWS V14.01,2013-04-19 14:30:00,
2013-04-19 09:34:00,38.7,29.8,29.33,North,360,26.0,37.0,70,0.00,,BKN050,0.00,VWS V14.01,2013-04-19 14:34:00,
2013-04-19 09:35:00,38.7,29.8,29.33,North,360,26.0,37.0,70,0.00,,FEW250,0.00,VWS V14.01,2013-04-19 14:35:00,
2013-04-19 09:39:00,38.8,29.9,29.33,SW,214,13.0,29.0,70,0.00,,BKN050,0.00,VWS V14.01,2013-04-19 14:39:00,
2013-04-19 09:40:00,38.8,29.9,29.33,SW,214,13.0,29.0,70,0.00,,FEW250,0.00,VWS V14.01,2013-04-19 14:40:00,
2013-04-19 09:44:00,38.8,29.9,29.33,North,360,13.0,26.0,70,0.00,,BKN050,0.00,VWS V14.01,2013-04-19 14:44:00,
2013-04-19 09:45:00,38.8,29.9,29.33,North,360,13.0,26.0,70,0.00,,FEW250,0.00,VWS V14.01,2013-04-19 14:45:00,
2013-04-19 09:49:00,38.6,29.7,29.33,SW,228,20.0,29.0,70,0.00,,BKN050,0.00,VWS V14.01,2013-04-19 14:49:00,
2013-04-19 09:50:00,38.6,29.7,29.33,SW,228,20.0,29.0,70,0.00,,FEW250,0.00,VWS V14.01,2013-04-19 14:50:00,
2013-04-19 09:54:00,38.6,29.7,29.33,WSW,249,18.0,28.0,70,0.00,,BKN050,0.00,VWS V14.01,2013-04-19 14:54:00,
2013-04-19 09:55:00,38.6,29.7,29.33,WSW,249,18.0,28.0,70,0.00,,FEW250,0.00,VWS V14.01,2013-04-19 14:55:00,
2013-04-19 09:59:00,38.7,29.8,29.33,WNW,296,14.0,26.0,70,0.00,,BKN050,0.00,VWS V14.01,2013-04-19 14:59:00,
2013-04-19 10:00:00,38.7,29.8,29.33,WNW,296,14.0,26.0,70,0.00,,FEW250,0.00,VWS V14.01,2013-04-19 15:00:00,
2013-04-19 10:04:00,38.1,29.9,29.34,SW,226,11.0,27.0,72,0.00,,OVC045,0.00,VWS V14.01,2013-04-19 15:04:00,
2013-04-19 10:05:00,38.1,29.9,29.34,SW,226,11.0,27.0,72,0.00,,FEW250,0.00,VWS V14.01,2013-04-19 15:05:00,
2013-04-19 10:09:00,38.2,30.0,29.34,North,360,18.0,30.0,72,0.00,,OVC045,0.00,VWS V14.01,2013-04-19 15:09:00,
2013-04-19 10:10:00,38.2,30.0,29.34,North,360,18.0,30.0,72,0.00,,FEW250,0.00,VWS V14.01,2013-04-19 15:10:00,
2013-04-19 10:14:00,38.8,30.6,29.34,WSW,252,9.0,27.0,72,0.00,,OVC045,0.00,VWS V14.01,2013-04-19 15:14:00,
2013-04-19 10:15:00,38.8,30.6,29.34,WSW,252,9.0,27.0,72,0.00,,FEW250,0.00,VWS V14.01,2013-04-19 15:15:00,
2013-04-19 10:19:00,38.2,29.6,29.35,West,268,14.0,26.0,71,0.00,,OVC045,0.00,VWS V14.01,2013-04-19 15:19:00,
2013-04-19 10:20:00,38.2,29.6,29.35,West,268,14.0,26.0,71,0.00,,FEW250,0.00,VWS V14.01,2013-04-19 15:20:00,
2013-04-19 10:24:00,38.1,29.9,29.35,SW,234,14.0,29.0,72,0.00,,OVC045,0.00,VWS V14.01,2013-04-19 15:24:00,
2013-04-19 10:25:00,38.1,29.9,29.35,SW,234,14.0,29.0,72,0.00,,FEW250,0.00,VWS V14.01,2013-04-19 15:25:00,
2013-04-19 10:29:00,37.8,29.9,29.35,SSW,205,9.0,27.0,73,0.00,,OVC045,0.00,VWS V14.01,2013-04-19 15:29:00,
2013-04-19 10:30:00,37.8,29.9,29.35,SSW,205,9.0,27.0,73,0.00,,FEW250,0.00,VWS V14.01,2013-04-19 15:30:00,
2013-04-19 10:34:00,37.1,31.2,29.36,South,170,11.0,29.0,79,0.00,,OVC045,0.00,VWS V14.01,2013-04-19 15:34:00,
2013-04-19 10:35:00,37.3,30.8,29.36,SW,232,15.0,29.0,77,0.00,,FEW250,0.00,VWS V14.01,2013-04-19 15:35:00,
2013-04-19 10:39:00,36.3,31.9,29.36,SSW,209,3.0,22.0,84,0.00,,OVC045,0.00,VWS V14.01,2013-04-19 15:39:00,
2013-04-19 10:40:00,36.3,31.9,29.36,South,188,10.0,22.0,84,0.00,,FEW250,0.00,VWS V14.01,2013-04-19 15:40:00,
2013-04-19 10:44:00,36.7,32.3,29.36,SSW,205,14.0,24.0,84,0.00,,OVC045,0.00,VWS V14.01,2013-04-19 15:44:00,
2013-04-19 10:45:00,36.7,32.3,29.36,West,261,20.0,24.0,84,0.00,,FEW250,0.00,VWS V14.01,2013-04-19 15:45:00,
2013-04-19 10:49:00,37.8,33.4,29.36,SW,232,3.0,21.0,84,0.00,,OVC045,0.00,VWS V14.01,2013-04-19 15:49:00,
2013-04-19 10:50:00,37.7,33.3,29.36,North,360,3.0,21.0,84,0.00,,FEW250,0.00,VWS V14.01,2013-04-19 15:50:00,
2013-04-19 10:54:00,38.1,32.2,29.36,North,360,7.0,29.0,79,0.00,,OVC045,0.00,VWS V14.01,2013-04-19 15:54:00,
2013-04-19 10:55:00,38.1,32.2,29.36,SW,227,14.0,29.0,79,0.00,,FEW250,0.00,VWS V14.01,2013-04-19 15:55:00,
2013-04-19 10:59:00,38.4,31.5,29.36,North,360,7.0,30.0,76,0.00,,OVC045,0.00,VWS V14.01,2013-04-19 15:59:00,
2013-04-19 11:00:00,38.4,31.5,29.36,SW,223,8.0,30.0,76,0.00,,FEW250,0.00,VWS V14.01,2013-04-19 16:00:00,
2013-04-19 11:04:00,38.8,31.9,29.36,WSW,253,13.0,25.0,76,0.00,,OVC046,0.00,VWS V14.01,2013-04-19 16:04:00,
2013-04-19 11:05:00,38.8,31.9,29.36,West,281,18.0,25.0,76,0.00,,FEW250,0.00,VWS V14.01,2013-04-19 16:05:00,
2013-04-19 11:09:00,38.2,30.0,29.37,SSE,163,13.0,34.0,72,0.00,,OVC046,0.00,VWS V14.01,2013-04-19 16:09:00,
2013-04-19 11:10:00,38.3,29.7,29.37,WSW,240,11.0,34.0,71,0.00,,FEW250,0.00,VWS V14.01,2013-04-19 16:10:00,
2013-04-19 11:14:00,38.5,30.6,29.37,SW,236,15.0,30.0,73,0.00,,OVC046,0.00,VWS V14.01,2013-04-19 16:14:00,
2013-04-19 11:15:00,38.4,30.5,29.37,WSW,245,16.0,27.0,73,0.00,,FEW250,0.00,VWS V14.01,2013-04-19 16:15:00,
2013-04-19 11:19:00,38.8,31.6,29.37,SSW,202,2.0,22.0,75,0.00,,OVC046,0.00,VWS V14.01,2013-04-19 16:19:00,
2013-04-19 11:20:00,38.6,31.0,29.37,SSW,209,7.0,22.0,74,0.00,,FEW250,0.00,VWS V14.01,2013-04-19 16:20:00,
2013-04-19 11:24:00,39.2,31.6,29.37,WSW,245,16.0,30.0,74,0.00,,OVC046,0.00,VWS V14.01,2013-04-19 16:24:00,
2013-04-19 11:25:00,39.2,31.3,29.37,West,278,19.0,30.0,73,0.00,,FEW250,0.00,VWS V14.01,2013-04-19 16:25:00,
2013-04-19 11:30:00,39.1,31.2,29.37,North,360,16.0,25.0,73,0.00,,OVC046,0.00,VWS V14.01,2013-04-19 16:30:00,
2013-04-19 11:35:00,39.0,30.8,29.37,SW,215,19.0,30.0,72,0.00,,OVC046,0.00,VWS V14.01,2013-04-19 16:35:00,
2013-04-19 11:40:00,38.6,30.4,29.38,West,270,14.0,35.0,72,0.00,,OVC046,0.00,VWS V14.01,2013-04-19 16:40:00,
2013-04-19 11:45:00,38.4,30.5,29.38,SSW,208,11.0,27.0,73,0.00,,OVC046,0.00,VWS V14.01,2013-04-19 16:45:00,
2013-04-19 11:50:00,38.6,31.7,29.38,WNW,294,16.0,24.0,76,0.00,,OVC046,0.00,VWS V14.01,2013-04-19 16:50:00,
2013-04-19 11:55:00,38.6,31.4,29.39,West,261,9.0,21.0,75,0.00,,OVC046,0.00,VWS V14.01,2013-04-19 16:55:00,
2013-04-19 12:00:00,36.7,31.4,29.39,West,279,12.0,33.0,81,0.00,,OVC046,0.00,VWS V14.01,2013-04-19 17:00:00,
2013-04-19 12:05:00,37.2,32.5,29.39,WSW,247,12.0,17.0,83,0.00,,OVC065,0.00,VWS V14.01,2013-04-19 17:05:00,
2013-04-19 12:10:00,38.1,33.1,29.39,West,261,9.0,19.0,82,0.00,,FEW250,0.00,VWS V14.01,2013-04-19 17:10:00,
2013-04-19 12:11:00,38.4,32.5,29.39,West,273,15.0,19.0,79,0.00,,OVC065,0.00,VWS V14.01,2013-04-19 17:11:00,
2013-04-19 12:15:00,38.8,31.9,29.39,West,273,10.0,24.0,76,0.00,,FEW250,0.00,VWS V14.01,2013-04-19 17:15:00,
2013-04-19 12:16:00,39.0,31.8,29.39,SW,227,7.0,24.0,75,0.00,,OVC065,0.00,VWS V14.01,2013-04-19 17:16:00,
2013-04-19 12:20:00,39.2,31.0,29.39,West,265,12.0,27.0,72,0.00,,FEW250,0.00,VWS V14.01,2013-04-19 17:20:00,
2013-04-19 12:21:00,39.3,30.7,29.39,SSW,207,8.0,27.0,71,0.00,,OVC065,0.00,VWS V14.01,2013-04-19 17:21:00,
2013-04-19 12:25:00,39.5,30.5,29.39,WSW,256,18.0,29.0,70,0.00,,FEW250,0.00,VWS V14.01,2013-04-19 17:25:00,
2013-04-19 12:26:00,39.5,30.5,29.39,WSW,255,10.0,29.0,70,0.00,,OVC065,0.00,VWS V14.01,2013-04-19 17:26:00,
2013-04-19 12:30:00,39.4,29.7,29.39,West,268,20.0,33.0,68,0.00,,FEW250,0.00,VWS V14.01,2013-04-19 17:30:00,
2013-04-19 12:31:00,39.3,29.6,29.40,West,267,16.0,33.0,68,0.00,,OVC044,0.00,VWS V14.01,2013-04-19 17:31:00,
2013-04-19 12:35:00,39.5,29.5,29.40,WSW,240,12.0,27.0,67,0.00,,FEW250,0.00,VWS V14.01,2013-04-19 17:35:00,
2013-04-19 12:36:00,39.6,29.6,29.40,SW,217,3.0,21.0,67,0.00,,OVC044,0.00,VWS V14.01,2013-04-19 17:36:00,
2013-04-19 12:40:00,39.9,30.9,29.40,SW,228,7.0,19.0,70,0.00,,FEW250,0.00,VWS V14.01,2013-04-19 17:40:00,
2013-04-19 12:41:00,40.0,31.0,29.40,WSW,239,2.0,26.0,70,0.00,,OVC044,0.00,VWS V14.01,2013-04-19 17:41:00,
2013-04-19 12:45:00,40.1,31.5,29.40,WSW,242,0.0,26.0,71,0.00,,FEW250,0.00,VWS V14.01,2013-04-19 17:45:00,
2013-04-19 12:46:00,40.3,31.7,29.40,West,272,10.0,15.0,71,0.00,,OVC044,0.00,VWS V14.01,2013-04-19 17:46:00,
2013-04-19 12:50:00,40.3,31.0,29.40,West,273,30.0,30.0,69,0.00,,FEW250,0.00,VWS V14.01,2013-04-19 17:50:00,
2013-04-19 12:51:00,40.1,29.7,29.41,North,360,10.0,31.0,66,0.00,,OVC044,0.00,VWS V14.01,2013-04-19 17:51:00,
2013-04-19 12:55:00,39.6,28.1,29.40,West,260,20.0,29.0,63,0.00,,FEW250,0.00,VWS V14.01,2013-04-19 17:55:00,
2013-04-19 12:56:00,39.3,27.8,29.40,West,274,21.0,29.0,63,0.00,,OVC044,0.00,VWS V14.01,2013-04-19 17:56:00,
2013-04-19 13:00:00,39.3,28.2,29.40,WNW,290,7.0,25.0,64,0.00,,FEW250,0.00,VWS V14.01,2013-04-19 18:00:00,
2013-04-19 13:01:00,39.6,28.4,29.40,WSW,250,27.0,27.0,64,0.00,,BKN029,0.00,VWS V14.01,2013-04-19 18:01:00,
2013-04-19 13:05:00,39.6,28.8,29.41,West,275,18.0,30.0,65,0.00,,FEW250,0.00,VWS V14.01,2013-04-19 18:05:00,
2013-04-19 13:06:00,38.9,29.6,29.41,WNW,296,23.0,34.0,69,0.00,,BKN029,0.00,VWS V14.01,2013-04-19 18:06:00,
2013-04-19 13:10:00,37.7,30.2,29.42,West,277,24.0,37.0,74,0.00,,FEW250,0.00,VWS V14.01,2013-04-19 18:10:00,
2013-04-19 13:11:00,36.9,30.4,29.42,West,269,20.0,37.0,77,0.00,,BKN029,0.00,VWS V14.01,2013-04-19 18:11:00,
2013-04-19 13:15:00,36.7,29.2,29.42,West,259,14.0,29.0,74,0.00,,FEW250,0.00,VWS V14.01,2013-04-19 18:15:00,
2013-04-19 13:16:00,37.1,29.6,29.42,West,264,12.0,27.0,74,0.00,,BKN029,0.00,VWS V14.01,2013-04-19 18:16:00,
2013-04-19 13:20:00,37.4,29.5,29.42,WNW,290,5.0,27.0,73,0.00,,FEW250,0.00,VWS V14.01,2013-04-19 18:20:00,
2013-04-19 13:21:00,37.8,30.3,29.42,WSW,238,7.0,19.0,74,0.00,,BKN029,0.00,VWS V14.01,2013-04-19 18:21:00,
2013-04-19 13:25:00,38.1,30.6,29.42,North,360,2.0,18.0,74,0.00,,FEW250,0.00,VWS V14.01,2013-04-19 18:25:00,
2013-04-19 13:27:00,38.3,30.8,29.42,West,280,7.0,18.0,74,0.00,,BKN029,0.00,VWS V14.01,2013-04-19 18:27:00,
2013-04-19 13:30:00,38.4,31.2,29.42,WSW,250,5.0,15.0,75,0.00,,FEW250,0.00,VWS V14.01,2013-04-19 18:30:00,
2013-04-19 13:32:00,38.5,31.0,29.43,West,264,12.0,19.0,74,0.00,,BKN090,0.00,VWS V14.01,2013-04-19 18:32:00,
2013-04-19 13:35:00,37.9,30.7,29.44,WSW,256,29.0,35.0,75,0.00,,FEW250,0.00,VWS V14.01,2013-04-19 18:35:00,
2013-04-19 13:37:00,36.3,30.1,29.44,West,279,20.0,35.0,78,0.00,,BKN090,0.00,VWS V14.01,2013-04-19 18:37:00,
2013-04-19 13:40:00,35.7,29.5,29.43,West,267,14.0,31.0,78,0.00,,FEW250,0.00,VWS V14.01,2013-04-19 18:40:00,
2013-04-19 13:42:00,35.6,29.4,29.43,North,360,14.0,21.0,78,0.00,,BKN090,0.00,VWS V14.01,2013-04-19 18:42:00,
2013-04-19 13:45:00,35.9,30.0,29.44,WSW,252,10.0,19.0,79,0.00,,FEW250,0.00,VWS V14.01,2013-04-19 18:45:00,
2013-04-19 13:47:00,36.5,30.0,29.43,WSW,258,16.0,21.0,77,0.00,,BKN090,0.00,VWS V14.01,2013-04-19 18:47:00,
2013-04-19 13:50:00,37.0,30.5,29.43,WSW,243,5.0,21.0,77,0.00,,FEW250,0.00,VWS V14.01,2013-04-19 18:50:00,
2013-04-19 13:52:00,37.8,30.3,29.43,WSW,250,8.0,24.0,74,0.00,,BKN090,0.00,VWS V14.01,2013-04-19 18:52:00,
2013-04-19 13:55:00,38.0,30.5,29.44,West,266,11.0,24.0,74,0.00,,FEW250,0.00,VWS V14.01,2013-04-19 18:55:00,
2013-04-19 13:57:00,38.3,30.1,29.44,SSW,200,7.0,22.0,72,0.00,,BKN090,0.00,VWS V14.01,2013-04-19 18:57:00,
2013-04-19 14:00:00,38.4,30.2,29.44,West,280,8.0,22.0,72,0.00,,FEW250,0.00,VWS V14.01,2013-04-19 19:00:00,
2013-04-19 14:02:00,38.1,30.6,29.45,West,277,10.0,23.0,74,0.00,,BKN075,0.00,VWS V14.01,2013-04-19 19:02:00,
2013-04-19 14:05:00,37.5,30.6,29.45,West,271,23.0,29.0,76,0.01,,FEW250,0.01,VWS V14.01,2013-04-19 19:05:00,
2013-04-19 14:07:00,35.7,30.5,29.45,WSW,250,13.0,29.0,81,0.01,,BKN075,0.01,VWS V14.01,2013-04-19 19:07:00,
2013-04-19 14:10:00,35.5,30.9,29.45,WSW,258,13.0,25.0,83,0.01,,FEW250,0.01,VWS V14.01,2013-04-19 19:10:00,
2013-04-19 14:12:00,35.4,31.1,29.45,West,266,14.0,23.0,84,0.01,,BKN075,0.01,VWS V14.01,2013-04-19 19:12:00,
2013-04-19 14:15:00,35.7,31.4,29.45,West,275,17.0,22.0,84,0.01,,FEW250,0.01,VWS V14.01,2013-04-19 19:15:00,
2013-04-19 14:17:00,36.6,32.2,29.46,SW,215,10.0,21.0,84,0.01,,BKN075,0.01,VWS V14.01,2013-04-19 19:17:00,
2013-04-19 14:20:00,36.9,31.9,29.45,WSW,253,5.0,21.0,82,0.01,,FEW250,0.01,VWS V14.01,2013-04-19 19:20:00,
2013-04-19 14:22:00,37.7,31.8,29.46,West,273,18.0,27.0,79,0.01,,BKN075,0.01,VWS V14.01,2013-04-19 19:22:00,
2013-04-19 14:25:00,37.9,31.7,29.46,West,259,18.0,27.0,78,0.01,,FEW250,0.01,VWS V14.01,2013-04-19 19:25:00,
2013-04-19 14:28:00,38.2,31.6,29.46,SSW,207,14.0,21.0,77,0.01,,BKN075,0.01,VWS V14.01,2013-04-19 19:28:00,
2013-04-19 14:30:00,38.0,31.4,29.46,WSW,257,25.0,31.0,77,0.01,,FEW250,0.01,VWS V14.01,2013-04-19 19:30:00,
2013-04-19 14:33:00,36.4,31.4,29.47,North,360,15.0,34.0,82,0.01,,,0.01,VWS V14.01,2013-04-19 19:33:00,
2013-04-19 14:35:00,36.0,31.0,29.48,West,271,10.0,34.0,82,0.01,,FEW250,0.01,VWS V14.01,2013-04-19 19:35:00,
2013-04-19 14:38:00,33.8,30.6,29.48,WSW,244,21.0,31.0,88,0.01,,,0.01,VWS V14.01,2013-04-19 19:38:00,
2013-04-19 14:40:00,33.6,30.4,29.48,West,272,11.0,31.0,88,0.01,,FEW250,0.01,VWS V14.01,2013-04-19 19:40:00,
2013-04-19 14:43:00,33.6,31.0,29.48,West,264,18.0,25.0,90,0.01,,,0.01,VWS V14.01,2013-04-19 19:43:00,
2013-04-19 14:45:00,33.7,31.1,29.48,West,275,4.0,20.0,90,0.01,,FEW250,0.01,VWS V14.01,2013-04-19 19:45:00,
2013-04-19 14:48:00,35.0,31.8,29.48,WSW,258,9.0,22.0,88,0.01,,,0.01,VWS V14.01,2013-04-19 19:48:00,
2013-04-19 14:50:00,35.2,31.7,29.48,West,273,16.0,22.0,87,0.01,,FEW250,0.01,VWS V14.01,2013-04-19 19:50:00,
2013-04-19 14:53:00,36.1,31.5,29.48,WSW,252,12.0,27.0,83,0.01,,,0.01,VWS V14.01,2013-04-19 19:53:00,
2013-04-19 14:55:00,36.2,31.5,29.48,West,275,13.0,24.0,83,0.01,,FEW250,0.01,VWS V14.01,2013-04-19 19:55:00,
2013-04-19 14:58:00,36.9,31.9,29.48,West,271,3.0,19.0,82,0.01,,,0.01,VWS V14.01,2013-04-19 19:58:00,
2013-04-19 15:00:00,37.0,31.7,29.48,SSW,205,10.0,19.0,81,0.01,,FEW250,0.01,VWS V14.01,2013-04-19 20:00:00,
2013-04-19 15:03:00,37.9,32.3,29.48,WSW,250,18.0,21.0,80,0.01,,OVC065,0.01,VWS V14.01,2013-04-19 20:03:00,
2013-04-19 15:05:00,38.0,32.4,29.48,West,271,10.0,20.0,80,0.01,,FEW250,0.01,VWS V14.01,2013-04-19 20:05:00,
2013-04-19 15:08:00,38.3,30.4,29.48,West,269,25.0,28.0,73,0.01,,OVC065,0.02,VWS V14.01,2013-04-19 20:08:00,
2013-04-19 15:10:00,38.3,30.4,29.48,WSW,244,10.0,28.0,73,0.01,,FEW250,0.02,VWS V14.01,2013-04-19 20:10:00,
2013-04-19 15:13:00,38.5,29.9,29.49,WNW,300,19.0,28.0,71,0.01,,OVC065,0.02,VWS V14.01,2013-04-19 20:13:00,
2013-04-19 15:15:00,38.4,29.5,29.49,West,263,17.0,28.0,70,0.01,,FEW250,0.02,VWS V14.01,2013-04-19 20:15:00,
2013-04-19 15:18:00,37.7,29.2,29.49,WSW,254,22.0,33.0,71,0.01,,OVC065,0.02,VWS V14.01,2013-04-19 20:18:00,
2013-04-19 15:20:00,37.7,29.2,29.49,West,267,17.0,33.0,71,0.01,,FEW250,0.02,VWS V14.01,2013-04-19 20:20:00,
2013-04-19 15:23:00,37.5,28.6,29.49,WNW,283,13.0,30.0,70,0.01,,OVC065,0.02,VWS V14.01,2013-04-19 20:23:00,
2013-04-19 15:25:00,37.6,28.4,29.50,South,174,9.0,30.0,69,0.01,,FEW250,0.02,VWS V14.01,2013-04-19 20:25:00,
2013-04-19 15:29:00,38.2,28.9,29.50,West,263,15.0,27.0,69,0.01,,OVC065,0.02,VWS V14.01,2013-04-19 20:29:00,
2013-04-19 15:30:00,38.2,28.6,29.50,West,263,22.0,27.0,68,0.01,,FEW250,0.02,VWS V14.01,2013-04-19 20:30:00,
2013-04-19 15:34:00,38.7,29.4,29.50,SW,228,9.0,29.0,69,0.01,,OVC065,0.02,VWS V14.01,2013-04-19 20:34:00,
2013-04-19 15:35:00,38.7,29.8,29.50,SW,232,12.0,29.0,70,0.01,,FEW250,0.02,VWS V14.01,2013-04-19 20:35:00,
2013-04-19 15:39:00,38.0,28.8,29.50,West,269,15.0,30.0,69,0.01,,OVC065,0.02,VWS V14.01,2013-04-19 20:39:00,
2013-04-19 15:40:00,38.0,28.8,29.50,West,269,15.0,30.0,69,0.01,,FEW250,0.02,VWS V14.01,2013-04-19 20:40:00,
2013-04-19 15:44:00,37.5,27.9,29.50,West,280,16.0,27.0,68,0.01,,OVC065,0.02,VWS V14.01,2013-04-19 20:44:00,
2013-04-19 15:45:00,37.5,27.9,29.50,West,280,16.0,27.0,68,0.01,,FEW250,0.02,VWS V14.01,2013-04-19 20:45:00,
2013-04-19 15:49:00,37.4,28.2,29.51,WSW,247,22.0,27.0,69,0.01,,OVC065,0.02,VWS V14.01,2013-04-19 20:49:00,
2013-04-19 15:50:00,37.4,28.2,29.51,WSW,247,22.0,27.0,69,0.01,,FEW250,0.02,VWS V14.01,2013-04-19 20:50:00,
2013-04-19 15:54:00,37.4,28.9,29.51,West,262,8.0,21.0,71,0.01,,OVC065,0.02,VWS V14.01,2013-04-19 20:54:00,
2013-04-19 15:55:00,37.4,28.9,29.51,WSW,257,19.0,26.0,71,0.01,,FEW250,0.02,VWS V14.01,2013-04-19 20:55:00,
2013-04-19 15:59:00,37.5,28.6,29.52,West,268,8.0,22.0,70,0.01,,OVC065,0.02,VWS V14.01,2013-04-19 20:59:00,
2013-04-19 16:00:00,37.5,28.6,29.52,West,268,8.0,22.0,70,0.01,,FEW250,0.02,VWS V14.01,2013-04-19 21:00:00,
2013-04-19 16:04:00,38.0,28.0,29.52,South,169,17.0,23.0,67,0.01,,,0.02,VWS V14.01,2013-04-19 21:04:00,
2013-04-19 16:05:00,38.0,28.0,29.52,South,169,17.0,23.0,67,0.01,,FEW250,0.02,VWS V14.01,2013-04-19 21:05:00,
2013-04-19 16:09:00,38.3,26.8,29.52,West,262,21.0,23.0,63,0.00,,,0.02,VWS V14.01,2013-04-19 21:09:00,
2013-04-19 16:10:00,38.3,26.8,29.53,WNW,285,12.0,23.0,63,0.01,,FEW250,0.02,VWS V14.01,2013-04-19 21:10:00,
2013-04-19 16:14:00,38.9,27.4,29.53,WNW,289,5.0,19.0,63,0.00,,,0.02,VWS V14.01,2013-04-19 21:14:00,
2013-04-19 16:15:00,38.9,27.0,29.53,West,265,11.0,22.0,62,0.00,,FEW250,0.02,VWS V14.01,2013-04-19 21:15:00,
2013-04-19 16:20:00,39.0,27.1,29.53,WSW,255,12.0,30.0,62,0.00,,,0.02,VWS V14.01,2013-04-19 21:20:00,
2013-04-19 16:25:00,39.0,27.5,29.53,West,271,9.0,28.0,63,0.00,,,0.02,VWS V14.01,2013-04-19 21:25:00,
2013-04-19 16:30:00,38.8,27.3,29.54,NW,321,13.0,28.0,63,0.00,,,0.02,VWS V14.01,2013-04-19 21:30:00,
2013-04-19 16:35:00,38.6,27.9,29.54,WSW,252,13.0,26.0,65,0.00,,,0.02,VWS V14.01,2013-04-19 21:35:00,
2013-04-19 16:40:00,38.8,28.1,29.55,West,268,18.0,23.0,65,0.00,,,0.02,VWS V14.01,2013-04-19 21:40:00,
2013-04-19 16:45:00,37.7,27.8,29.55,West,273,19.0,33.0,67,0.00,,,0.02,VWS V14.01,2013-04-19 21:45:00,
2013-04-19 16:50:00,36.6,28.4,29.56,WNW,294,17.0,31.0,72,0.00,,,0.02,VWS V14.01,2013-04-19 21:50:00,
2013-04-19 16:55:00,36.9,28.4,29.56,WNW,282,13.0,26.0,71,0.00,,,0.02,VWS V14.01,2013-04-19 21:55:00,
2013-04-19 17:00:00,37.2,27.6,29.57,SW,223,14.0,25.0,68,0.00,,,0.02,VWS V14.01,2013-04-19 22:00:00,
2013-04-19 17:05:00,37.7,27.0,29.57,West,271,11.0,19.0,65,0.00,,OVC060,0.02,VWS V14.01,2013-04-19 22:05:00,
2013-04-19 17:10:00,37.9,27.2,29.57,North,360,23.0,24.0,65,0.00,,OVC060,0.02,VWS V14.01,2013-04-19 22:10:00,
2013-04-19 17:15:00,37.0,26.7,29.57,West,281,16.0,32.0,66,0.00,,OVC060,0.02,VWS V14.01,2013-04-19 22:15:00,
2013-04-19 17:20:00,36.9,28.0,29.58,North,360,15.0,25.0,70,0.00,,OVC060,0.02,VWS V14.01,2013-04-19 22:20:00,
2013-04-19 17:25:00,37.3,28.4,29.58,West,271,13.0,20.0,70,0.00,,OVC060,0.02,VWS V14.01,2013-04-19 22:25:00,
2013-04-19 17:30:00,37.5,28.3,29.58,West,264,10.0,19.0,69,0.00,,FEW250,0.02,VWS V14.01,2013-04-19 22:30:00,
2013-04-19 17:31:00,37.5,27.9,29.58,North,360,11.0,19.0,68,0.00,,OVC060,0.02,VWS V14.01,2013-04-19 22:31:00,
2013-04-19 17:35:00,37.5,27.9,29.58,North,360,14.0,19.0,68,0.00,,FEW250,0.02,VWS V14.01,2013-04-19 22:35:00,
2013-04-19 17:36:00,37.6,28.0,29.59,WSW,250,25.0,26.0,68,0.00,,OVC060,0.02,VWS V14.01,2013-04-19 22:36:00,
2013-04-19 17:40:00,37.6,27.3,29.59,West,269,14.0,26.0,66,0.00,,FEW250,0.02,VWS V14.01,2013-04-19 22:40:00,
2013-04-19 17:41:00,37.7,27.0,29.59,West,281,16.0,25.0,65,0.00,,OVC060,0.02,VWS V14.01,2013-04-19 22:41:00,
2013-04-19 17:45:00,37.7,26.6,29.59,West,261,17.0,25.0,64,0.00,,FEW250,0.02,VWS V14.01,2013-04-19 22:45:00,
2013-04-19 17:46:00,37.8,26.7,29.59,North,360,14.0,19.0,64,0.00,,OVC060,0.02,VWS V14.01,2013-04-19 22:46:00,
2013-04-19 17:50:00,37.8,26.4,29.59,WNW,282,6.0,20.0,63,0.00,,FEW250,0.02,VWS V14.01,2013-04-19 22:50:00,
2013-04-19 17:51:00,37.8,26.7,29.59,West,260,15.0,20.0,64,0.00,,OVC060,0.02,VWS V14.01,2013-04-19 22:51:00,
2013-04-19 17:55:00,37.6,25.8,29.59,West,273,13.0,22.0,62,0.00,,FEW250,0.02,VWS V14.01,2013-04-19 22:55:00,
2013-04-19 17:56:00,37.5,26.1,29.60,WSW,246,11.0,21.0,63,0.00,,OVC060,0.02,VWS V14.01,2013-04-19 22:56:00,
2013-04-19 18:00:00,37.4,26.4,29.59,WSW,242,15.0,20.0,64,0.00,,FEW250,0.02,VWS V14.01,2013-04-19 23:00:00,
2013-04-19 18:01:00,37.5,26.1,29.60,West,260,13.0,21.0,63,0.00,,OVC070,0.02,VWS V14.01,2013-04-19 23:01:00,
2013-04-19 18:05:00,37.5,25.7,29.60,West,275,16.0,26.0,62,0.00,,FEW250,0.02,VWS V14.01,2013-04-19 23:05:00,
2013-04-19 18:06:00,37.5,25.7,29.60,West,279,15.0,31.0,62,0.00,,OVC070,0.02,VWS V14.01,2013-04-19 23:06:00,
2013-04-19 18:10:00,37.5,25.7,29.60,West,280,13.0,31.0,62,0.00,,FEW250,0.02,VWS V14.01,2013-04-19 23:10:00,
2013-04-19 18:11:00,37.5,25.7,29.60,West,261,21.0,27.0,62,0.00,,OVC070,0.02,VWS V14.01,2013-04-19 23:11:00,
2013-04-19 18:15:00,37.3,25.9,29.60,West,261,19.0,27.0,63,0.00,,FEW250,0.02,VWS V14.01,2013-04-19 23:15:00,
2013-04-19 18:16:00,37.2,26.2,29.61,West,267,12.0,23.0,64,0.00,,OVC070,0.02,VWS V14.01,2013-04-19 23:16:00,
2013-04-19 18:20:00,37.1,26.1,29.61,WSW,257,14.0,25.0,64,0.00,,FEW250,0.02,VWS V14.01,2013-04-19 23:20:00,
2013-04-19 18:21:00,37.0,26.0,29.61,WNW,284,14.0,25.0,64,0.00,,OVC070,0.02,VWS V14.01,2013-04-19 23:21:00,
2013-04-19 18:25:00,37.0,26.0,29.61,WSW,257,15.0,24.0,64,0.00,,SCT250,0.02,VWS V14.01,2013-04-19 23:25:00,
2013-04-19 18:26:00,36.9,25.9,29.61,West,278,13.0,24.0,64,0.00,,OVC070,0.02,VWS V14.01,2013-04-19 23:26:00,
2013-04-19 18:30:00,36.9,25.9,29.61,West,278,12.0,21.0,64,0.00,,FEW250,0.02,VWS V14.01,2013-04-19 23:30:00,
2013-04-19 18:31:00,36.9,25.9,29.62,NW,311,10.0,21.0,64,0.00,,,0.02,VWS V14.01,2013-04-19 23:31:00,
2013-04-19 18:35:00,36.9,26.2,29.62,West,270,12.0,20.0,65,0.00,,FEW250,0.02,VWS V14.01,2013-04-19 23:35:00,
2013-04-19 18:36:00,37.0,26.3,29.62,West,262,9.0,20.0,65,0.00,,,0.02,VWS V14.01,2013-04-19 23:36:00,
2013-04-19 18:40:00,37.0,26.3,29.62,WSW,256,11.0,20.0,65,0.00,,SCT250,0.02,VWS V14.01,2013-04-19 23:40:00,
2013-04-19 18:41:00,37.0,26.7,29.62,WNW,288,8.0,20.0,66,0.00,,,0.02,VWS V14.01,2013-04-19 23:41:00,
2013-04-19 18:45:00,37.0,26.3,29.62,West,259,8.0,16.0,65,0.00,,SCT250,0.02,VWS V14.01,2013-04-19 23:45:00,
2013-04-19 18:46:00,37.0,26.3,29.62,WNW,285,5.0,17.0,65,0.00,,,0.02,VWS V14.01,2013-04-19 23:46:00,
2013-04-19 18:50:00,37.0,26.3,29.63,West,259,11.0,17.0,65,0.00,,FEW250,0.02,VWS V14.01,2013-04-19 23:50:00,
2013-04-19 18:52:00,37.0,26.3,29.63,West,271,9.0,16.0,65,0.00,,,0.02,VWS V14.01,2013-04-19 23:52:00,
2013-04-19 18:55:00,37.0,26.0,29.63,WNW,290,7.0,16.0,64,0.00,,FEW250,0.02,VWS V14.01,2013-04-19 23:55:00,
2013-04-19 18:57:00,37.0,26.0,29.63,West,281,9.0,16.0,64,0.00,,,0.02,VWS V14.01,2013-04-19 23:57:00,
2013-04-19 19:00:00,37.0,25.2,29.63,West,269,12.0,13.0,62,0.00,,FEW250,0.02,VWS V14.01,2013-04-20 00:00:00,
2013-04-19 19:02:00,36.9,24.3,29.63,West,270,18.0,19.0,60,0.00,,OVC070,0.02,VWS V14.01,2013-04-20 00:02:00,
2013-04-19 19:05:00,36.9,23.9,29.64,WNW,301,8.0,19.0,59,0.00,,FEW250,0.02,VWS V14.01,2013-04-20 00:05:00,
2013-04-19 19:07:00,36.9,24.3,29.64,SW,232,6.0,19.0,60,0.00,,OVC070,0.02,VWS V14.01,2013-04-20 00:07:00,
2013-04-19 19:10:00,36.9,24.3,29.64,West,263,10.0,18.0,60,0.00,,FEW250,0.02,VWS V14.01,2013-04-20 00:10:00,
2013-04-19 19:12:00,36.9,24.3,29.64,WSW,257,8.0,18.0,60,0.00,,OVC070,0.02,VWS V14.01,2013-04-20 00:12:00,
2013-04-19 19:15:00,36.9,24.3,29.64,WNW,284,13.0,21.0,60,0.00,,FEW250,0.02,VWS V14.01,2013-04-20 00:15:00,
2013-04-19 19:17:00,36.9,24.3,29.65,North,360,17.0,21.0,60,0.00,,OVC070,0.02,VWS V14.01,2013-04-20 00:17:00,
2013-04-19 19:20:00,36.9,23.9,29.65,WSW,257,14.0,21.0,59,0.00,,FEW250,0.02,VWS V14.01,2013-04-20 00:20:00,
2013-04-19 19:22:00,36.9,24.3,29.65,West,271,14.0,21.0,60,0.00,,OVC070,0.02,VWS V14.01,2013-04-20 00:22:00,
2013-04-19 19:25:00,36.9,24.3,29.65,West,279,9.0,21.0,60,0.00,,FEW250,0.02,VWS V14.01,2013-04-20 00:25:00,
2013-04-19 19:27:00,36.8,24.6,29.66,West,280,8.0,17.0,61,0.00,,OVC070,0.02,VWS V14.01,2013-04-20 00:27:00,
2013-04-19 19:30:00,36.8,24.6,29.66,West,274,14.0,17.0,61,0.00,,FEW250,0.02,VWS V14.01,2013-04-20 00:30:00,
2013-04-19 19:32:00,36.8,25.0,29.66,WSW,249,10.0,17.0,62,0.00,,OVC070,0.02,VWS V14.01,2013-04-20 00:32:00,
2013-04-19 19:35:00,36.8,25.0,29.66,West,278,10.0,14.0,62,0.00,,FEW250,0.02,VWS V14.01,2013-04-20 00:35:00,
2013-04-19 19:37:00,36.7,24.9,29.66,West,264,10.0,18.0,62,0.00,,OVC070,0.02,VWS V14.01,2013-04-20 00:37:00,
2013-04-19 19:40:00,36.6,24.8,29.67,WNW,288,14.0,18.0,62,0.00,,FEW250,0.02,VWS V14.01,2013-04-20 00:40:00,
2013-04-19 19:42:00,36.3,25.7,29.67,West,281,14.0,18.0,65,0.00,,OVC070,0.02,VWS V14.01,2013-04-20 00:42:00,
2013-04-19 19:45:00,36.2,26.0,29.67,West,272,10.0,23.0,66,0.00,,FEW250,0.02,VWS V14.01,2013-04-20 00:45:00,
2013-04-19 19:47:00,35.9,26.0,29.67,WSW,255,6.0,23.0,67,0.00,,OVC070,0.02,VWS V14.01,2013-04-20 00:47:00,
2013-04-19 19:50:00,35.9,26.4,29.68,SW,226,10.0,19.0,68,0.00,,FEW250,0.02,VWS V14.01,2013-04-20 00:50:00,
2013-04-19 19:52:00,35.7,26.5,29.68,West,267,14.0,17.0,69,0.00,,OVC070,0.02,VWS V14.01,2013-04-20 00:52:00,
2013-04-19 19:55:00,35.7,26.5,29.68,WNW,282,12.0,17.0,69,0.00,,FEW250,0.02,VWS V14.01,2013-04-20 00:55:00,
2013-04-19 19:57:00,35.5,26.4,29.68,West,265,14.0,20.0,69,0.00,,OVC070,0.02,VWS V14.01,2013-04-20 00:57:00,
2013-04-19 20:00:00,35.5,26.4,29.68,West,262,12.0,20.0,69,0.00,,FEW250,0.02,VWS V14.01,2013-04-20 01:00:00,
2013-04-19 20:02:00,35.4,26.6,29.69,West,278,9.0,20.0,70,0.00,,BKN150,0.02,VWS V14.01,2013-04-20 01:02:00,
2013-04-19 20:05:00,35.4,27.0,29.69,West,263,14.0,20.0,71,0.00,,FEW250,0.02,VWS V14.01,2013-04-20 01:05:00,
2013-04-19 20:08:00,35.3,27.2,29.69,WNW,283,8.0,16.0,72,0.00,,BKN150,0.02,VWS V14.01,2013-04-20 01:08:00,
2013-04-19 20:10:00,35.2,27.1,29.70,West,262,3.0,16.0,72,0.00,,FEW250,0.02,VWS V14.01,2013-04-20 01:10:00,
2013-04-19 20:13:00,35.2,27.4,29.70,WNW,284,8.0,12.0,73,0.00,,BKN150,0.02,VWS V14.01,2013-04-20 01:13:00,
2013-04-19 20:15:00,35.2,27.8,29.70,West,281,5.0,12.0,74,0.00,,FEW250,0.02,VWS V14.01,2013-04-20 01:15:00,
2013-04-19 20:18:00,35.1,27.7,29.70,North,360,7.0,16.0,74,0.00,,BKN150,0.02,VWS V14.01,2013-04-20 01:18:00,
2013-04-19 20:20:00,35.0,27.6,29.70,WNW,288,7.0,16.0,74,0.00,,FEW250,0.02,VWS V14.01,2013-04-20 01:20:00,
2013-04-19 20:23:00,35.0,27.9,29.71,West,276,7.0,12.0,75,0.00,,BKN150,0.02,VWS V14.01,2013-04-20 01:23:00,
2013-04-19 20:25:00,35.0,27.9,29.71,West,276,10.0,12.0,75,0.00,,FEW250,0.02,VWS V14.01,2013-04-20 01:25:00,
2013-04-19 20:28:00,34.9,27.8,29.71,West,259,8.0,16.0,75,0.00,,BKN150,0.02,VWS V14.01,2013-04-20 01:28:00,
2013-04-19 20:30:00,34.9,27.5,29.71,West,270,10.0,16.0,74,0.00,,FEW250,0.02,VWS V14.01,2013-04-20 01:30:00,
2013-04-19 20:33:00,35.0,27.6,29.72,WSW,258,11.0,15.0,74,0.00,,BKN150,0.02,VWS V14.01,2013-04-20 01:33:00,
2013-04-19 20:35:00,34.9,27.5,29.71,West,263,8.0,15.0,74,0.00,,FEW250,0.02,VWS V14.01,2013-04-20 01:35:00,
2013-04-19 20:38:00,35.0,27.9,29.72,West,277,7.0,11.0,75,0.00,,BKN150,0.02,VWS V14.01,2013-04-20 01:38:00,
2013-04-19 20:40:00,35.0,27.6,29.72,WNW,290,4.0,11.0,74,0.00,,FEW250,0.02,VWS V14.01,2013-04-20 01:40:00,
2013-04-19 20:43:00,35.1,27.7,29.72,NW,307,12.0,15.0,74,0.00,,BKN150,0.02,VWS V14.01,2013-04-20 01:43:00,
2013-04-19 20:45:00,35.0,27.6,29.72,North,360,12.0,15.0,74,0.00,,FEW250,0.02,VWS V14.01,2013-04-20 01:45:00,
2013-04-19 20:48:00,33.4,27.9,29.73,WNW,298,8.0,24.0,80,0.00,,BKN150,0.02,VWS V14.01,2013-04-20 01:48:00,
2013-04-19 20:50:00,33.2,27.7,29.73,WNW,292,12.0,24.0,80,0.00,,SCT250,0.02,VWS V14.01,2013-04-20 01:50:00,
2013-04-19 20:53:00,32.4,28.1,29.73,WNW,296,7.0,11.0,84,0.00,,BKN150,0.02,VWS V14.01,2013-04-20 01:53:00,
2013-04-19 20:55:00,32.4,28.1,29.73,NW,322,5.0,11.0,84,0.00,,FEW250,0.02,VWS V14.01,2013-04-20 01:55:00,
2013-04-19 20:58:00,32.5,28.2,29.73,WNW,290,1.0,10.0,84,0.00,,BKN150,0.02,VWS V14.01,2013-04-20 01:58:00,
2013-04-19 21:00:00,32.5,28.2,29.73,West,273,4.0,10.0,84,0.00,,FEW250,0.02,VWS V14.01,2013-04-20 02:00:00,
2013-04-19 21:03:00,32.7,28.1,29.74,WNW,298,6.0,10.0,83,0.00,,OVC070,0.02,VWS V14.01,2013-04-20 02:03:00,
2013-04-19 21:05:00,32.7,28.1,29.74,WNW,286,5.0,10.0,83,0.00,,FEW250,0.02,VWS V14.01,2013-04-20 02:05:00,
2013-04-19 21:08:00,33.1,27.9,29.74,WNW,300,11.0,12.0,81,0.00,,OVC070,0.02,VWS V14.01,2013-04-20 02:08:00,
2013-04-19 21:10:00,33.2,28.0,29.74,West,265,10.0,12.0,81,0.00,,FEW250,0.02,VWS V14.01,2013-04-20 02:10:00,
2013-04-19 21:13:00,33.5,27.7,29.74,WNW,298,12.0,16.0,79,0.00,,OVC070,0.02,VWS V14.01,2013-04-20 02:13:00,
2013-04-19 21:15:00,33.5,27.4,29.74,WNW,292,11.0,16.0,78,0.00,,FEW250,0.02,VWS V14.01,2013-04-20 02:15:00,
2013-04-19 21:18:00,33.2,27.7,29.75,West,281,13.0,22.0,80,0.00,,OVC070,0.02,VWS V14.01,2013-04-20 02:18:00,
2013-04-19 21:20:00,33.2,27.7,29.75,North,360,18.0,22.0,80,0.00,,FEW250,0.02,VWS V14.01,2013-04-20 02:20:00,
2013-04-19 21:24:00,32.5,27.6,29.75,West,281,12.0,20.0,82,0.00,,OVC070,0.02,VWS V14.01,2013-04-20 02:24:00,
2013-04-19 21:25:00,32.5,27.6,29.75,West,271,17.0,20.0,82,0.00,,FEW250,0.02,VWS V14.01,2013-04-20 02:25:00,
2013-04-19 21:29:00,32.3,27.4,29.75,NW,309,12.0,22.0,82,0.00,,OVC070,0.02,VWS V14.01,2013-04-20 02:29:00,
2013-04-19 21:30:00,32.3,27.4,29.75,North,360,11.0,22.0,82,0.00,,FEW250,0.02,VWS V14.01,2013-04-20 02:30:00,
2013-04-19 21:34:00,32.3,27.1,29.75,West,273,9.0,17.0,81,0.00,,OVC070,0.02,VWS V14.01,2013-04-20 02:34:00,
2013-04-19 21:35:00,32.3,27.1,29.75,West,273,9.0,17.0,81,0.00,,FEW250,0.02,VWS V14.01,2013-04-20 02:35:00,
2013-04-19 21:39:00,32.2,27.0,29.75,WNW,298,12.0,22.0,81,0.00,,OVC070,0.02,VWS V14.01,2013-04-20 02:39:00,
2013-04-19 21:40:00,32.2,27.0,29.75,WNW,298,12.0,22.0,81,0.00,,FEW250,0.02,VWS V14.01,2013-04-20 02:40:00,
2013-04-19 21:44:00,32.3,26.8,29.76,West,267,9.0,17.0,80,0.00,,OVC070,0.02,VWS V14.01,2013-04-20 02:44:00,
2013-04-19 21:45:00,32.3,26.8,29.76,West,267,9.0,17.0,80,0.00,,FEW250,0.02,VWS V14.01,2013-04-20 02:45:00,
2013-04-19 21:49:00,32.5,26.7,29.76,WNW,288,9.0,16.0,79,0.00,,OVC070,0.02,VWS V14.01,2013-04-20 02:49:00,
2013-04-19 21:50:00,32.5,26.7,29.76,WNW,290,7.0,16.0,79,0.00,,SCT250,0.02,VWS V14.01,2013-04-20 02:50:00,
2013-04-19 21:54:00,32.6,26.8,29.77,West,274,9.0,16.0,79,0.00,,OVC070,0.02,VWS V14.01,2013-04-20 02:54:00,
2013-04-19 21:55:00,32.6,26.5,29.77,WNW,298,7.0,16.0,78,0.00,,FEW250,0.02,VWS V14.01,2013-04-20 02:55:00,
2013-04-19 21:59:00,32.8,26.4,29.77,WNW,291,9.0,17.0,77,0.00,,OVC070,0.02,VWS V14.01,2013-04-20 02:59:00,
2013-04-19 22:00:00,32.8,26.4,29.77,West,271,9.0,17.0,77,0.00,,FEW250,0.02,VWS V14.01,2013-04-20 03:00:00,
2013-04-19 22:04:00,32.9,26.2,29.77,West,278,7.0,14.0,76,0.00,,BKN070,0.02,VWS V14.01,2013-04-20 03:04:00,
2013-04-19 22:05:00,32.9,26.5,29.77,WNW,289,10.0,14.0,77,0.00,,FEW250,0.02,VWS V14.01,2013-04-20 03:05:00,
2013-04-19 22:09:00,33.0,26.0,29.77,West,276,7.0,14.0,75,0.00,,BKN070,0.02,VWS V14.01,2013-04-20 03:09:00,
2013-04-19 22:10:00,33.0,26.3,29.77,West,269,9.0,12.0,76,0.00,,FEW250,0.02,VWS V14.01,2013-04-20 03:10:00,
2013-04-19 22:14:00,33.0,25.6,29.77,West,266,10.0,15.0,74,0.00,,BKN070,0.02,VWS V14.01,2013-04-20 03:14:00,
2013-04-19 22:15:00,33.0,25.6,29.77,West,271,9.0,19.0,74,0.00,,FEW250,0.02,VWS V14.01,2013-04-20 03:15:00,
2013-04-19 22:19:00,33.2,25.2,29.78,WNW,284,13.0,15.0,72,0.00,,BKN070,0.02,VWS V14.01,2013-04-20 03:19:00,
2013-04-19 22:20:00,33.1,25.1,29.77,West,263,12.0,15.0,72,0.00,,FEW250,0.02,VWS V14.01,2013-04-20 03:20:00,
2013-04-19 22:24:00,33.2,24.5,29.77,West,272,8.0,16.0,70,0.00,,BKN070,0.02,VWS V14.01,2013-04-20 03:24:00,
2013-04-19 22:25:00,33.2,24.5,29.77,WNW,288,7.0,18.0,70,0.00,,FEW250,0.02,VWS V14.01,2013-04-20 03:25:00,
2013-04-19 22:29:00,33.2,23.8,29.78,West,264,13.0,21.0,68,0.00,,BKN070,0.02,VWS V14.01,2013-04-20 03:29:00,
2013-04-19 22:30:00,33.2,23.8,29.78,WNW,293,11.0,21.0,68,0.00,,FEW250,0.02,VWS V14.01,2013-04-20 03:30:00,
2013-04-19 22:34:00,33.1,23.7,29.78,WNW,288,7.0,17.0,68,0.00,,BKN070,0.02,VWS V14.01,2013-04-20 03:34:00,
2013-04-19 22:35:00,33.2,23.8,29.78,WNW,288,11.0,17.0,68,0.00,,FEW250,0.02,VWS V14.01,2013-04-20 03:35:00,
2013-04-19 22:40:00,33.0,23.2,29.78,SW,234,7.0,19.0,67,0.00,,BKN070,0.02,VWS V14.01,2013-04-20 03:40:00,
2013-04-19 22:45:00,33.0,23.6,29.78,WSW,247,9.0,19.0,68,0.00,,BKN070,0.02,VWS V14.01,2013-04-20 03:45:00,
2013-04-19 22:50:00,32.8,23.1,29.79,West,265,16.0,20.0,67,0.00,,BKN070,0.02,VWS V14.01,2013-04-20 03:50:00,
2013-04-19 22:55:00,32.7,23.3,29.79,West,270,6.0,18.0,68,0.00,,BKN070,0.02,VWS V14.01,2013-04-20 03:55:00,
2013-04-19 23:00:00,32.6,22.9,29.79,WNW,301,12.0,23.0,67,0.00,,BKN070,0.02,VWS V14.01,2013-04-20 04:00:00,
2013-04-19 23:01:00,32.6,22.9,29.80,NW,309,12.0,23.0,67,0.00,,,0.02,VWS V14.01,2013-04-20 04:01:00,
2013-04-19 23:02:00,32.6,23.2,29.80,NW,304,10.0,23.0,68,0.00,,,0.02,VWS V14.01,2013-04-20 04:02:00,
2013-04-19 23:03:00,32.5,23.1,29.80,North,360,16.0,17.0,68,0.00,,,0.02,VWS V14.01,2013-04-20 04:03:00,
2013-04-19 23:04:00,32.5,23.1,29.80,WNW,289,9.0,19.0,68,0.00,,,0.02,VWS V14.01,2013-04-20 04:04:00,
2013-04-19 23:05:00,32.5,23.1,29.80,West,269,11.0,19.0,68,0.00,,FEW250,0.02,VWS V14.01,2013-04-20 04:05:00,
2013-04-19 23:09:00,32.5,23.1,29.80,WSW,254,8.0,21.0,68,0.00,,,0.02,VWS V14.01,2013-04-20 04:09:00,
2013-04-19 23:10:00,32.5,23.1,29.80,West,271,13.0,21.0,68,0.00,,FEW250,0.02,VWS V14.01,2013-04-20 04:10:00,
2013-04-19 23:13:00,32.4,23.4,29.80,WNW,284,8.0,16.0,69,0.00,,,0.02,VWS V14.01,2013-04-20 04:13:00,
2013-04-19 23:15:00,32.4,23.4,29.80,West,267,10.0,14.0,69,0.00,,FEW250,0.02,VWS V14.01,2013-04-20 04:15:00,
2013-04-19 23:18:00,32.4,23.7,29.80,West,277,16.0,16.0,70,0.00,,,0.02,VWS V14.01,2013-04-20 04:18:00,
2013-04-19 23:20:00,32.3,23.3,29.80,West,279,15.0,17.0,69,0.00,,FEW250,0.02,VWS V14.01,2013-04-20 04:20:00,
2013-04-19 23:23:00,32.3,23.3,29.81,West,273,5.0,17.0,69,0.00,,,0.02,VWS V14.01,2013-04-20 04:23:00,
2013-04-19 23:25:00,32.3,23.3,29.81,WNW,285,14.0,17.0,69,0.00,,FEW250,0.02,VWS V14.01,2013-04-20 04:25:00,
2013-04-19 23:28:00,32.2,23.2,29.81,West,270,11.0,18.0,69,0.00,,,0.02,VWS V14.01,2013-04-20 04:28:00,
2013-04-19 23:30:00,32.2,23.2,29.81,West,279,12.0,18.0,69,0.00,,FEW250,0.02,VWS V14.01,2013-04-20 04:30:00,
2013-04-19 23:33:00,32.1,23.1,29.81,WNW,300,11.0,16.0,69,0.00,,,0.02,VWS V14.01,2013-04-20 04:33:00,
2013-04-19 23:35:00,32.1,23.1,29.81,West,281,9.0,15.0,69,0.00,,FEW250,0.02,VWS V14.01,2013-04-20 04:35:00,
2013-04-19 23:38:00,31.9,23.2,29.81,WNW,288,7.0,17.0,70,0.00,,,0.02,VWS V14.01,2013-04-20 04:38:00,
2013-04-19 23:40:00,32.0,23.3,29.81,WNW,286,11.0,18.0,70,0.00,,FEW250,0.02,VWS V14.01,2013-04-20 04:40:00,
2013-04-19 23:43:00,31.9,22.9,29.82,West,272,7.0,17.0,69,0.00,,,0.02,VWS V14.01,2013-04-20 04:43:00,
2013-04-19 23:45:00,31.9,22.9,29.82,WNW,284,9.0,17.0,69,0.00,,FEW250,0.02,VWS V14.01,2013-04-20 04:45:00,
2013-04-19 23:48:00,31.7,22.7,29.82,WNW,292,7.0,17.0,69,0.00,,,0.02,VWS V14.01,2013-04-20 04:48:00,
2013-04-19 23:50:00,31.7,22.7,29.82,West,277,9.0,17.0,69,0.00,,FEW250,0.02,VWS V14.01,2013-04-20 04:50:00,
2013-04-19 23:53:00,31.7,22.4,29.82,West,263,11.0,19.0,68,0.00,,,0.02,VWS V14.01,2013-04-20 04:53:00,
2013-04-19 23:55:00,31.7,22.4,29.82,WNW,299,13.0,19.0,68,0.00,,FEW250,0.02,VWS V14.01,2013-04-20 04:55:00,
2013-04-19 23:59:00,31.6,22.3,29.82,West,270,10.0,21.0,68,0.00,,,0.02,VWS V14.01,2013-04-20 04:59:00,